INTASAT

导读

INTASAT是西班牙(ES)于1974年11月15日08:00发射的卫星,是西班牙早期航天尝试的代表产物。作为西班牙较早进入太空的人造卫星,它承载着西班牙航天领域初步探索的意义,标志着西班牙正式跻身航天发射活动国家之列,为后续西班牙航天技术发展、卫星应用研发积累了基础经验,在欧洲早期航天发展进程中留下了独特印记。

Basic Information
目录编号:
7531
目录名称:
INTASAT
国际标识:
1974-089C
轨道中心:
EARTH
卫星名称:
INTASAT
卫星全名:
--
卫星状态:
在轨 (已飞行18931 天)
发射日期:
1974-11-15 UTC
国别 :
西班牙 (ES)
星等 :
--
This satellite is enrolled in the Space Conjunction Data Service (SCDS) and the current flight risk assessment level is: No High Risk
Orbit Information
数据来源 国际轨道数据
星历时间: 2026-09-14T07:25:41+0800
7小时前
查看轨道信息
半长轴: 7827.893km
偏心率: 0.0011213
轨道倾角: 101.996°
近地点辐角 334.907°
升交点赤经 270.274°
平近点角 39.034°
近地点: 1440.978km
远地点: 1458.534km
周期: 114.875分钟
每日圈数: 12.535321
Detailed Information
使用方式:
暂无
2D Orbit Map
3D Orbit Map
Orbit Altitude Analysis Chart
Orbit Inclination Analysis Chart
Orbit Comprehensive Analysis Chart
View Comprehensive Chart
Conjunction Data List
Event ID Objects TCA Miss Dist (km) Collision Risk Probability Collision Risk Index (CRI) Action
CDM_260915-190300-753100-932323
INTASAT (7531)
2026-09-15T
19:03:23+0000
2.636 km
极远距离
1.502504E-6 低风险 0.39
CDM_260915-215900-753100-839424
INTASAT (7531)
2026-09-15T
21:59:50+0000
2.372 km
极远距离
3.022707E-7 极低风险 0.25
Miss Distance Evolution Trend with All Objects Subscribe to Flight Safety Assessment
Collision Probability Evolution Trend with All Objects Subscribe to Flight Safety Assessment